Vorticity
5 4 7 6 4 6 5 4 3 3 4 7 14 15 -2 22 8 9 10 5 3 9
5 5 5 7 7 6 5 6 7 8 9 -0 -6 48 3 36 8 5 -0 3 2 -3
4 2 4 7 6 4 3 0 -1 -1 6 -7 20 12 13 11 2 5 1 3 -1 1
12 7 5 5 1 11 6 10 14 -9 9 -21 39 18 4 5 2 7 5 5 5 15
24 10 -14 39 91 18 57 9 -16 48 33 36 21 8 6 6 4 5 5 8 9 -4
11 13 -3 -1 32 5 20 -3 21 12 19 12 5 9 8 8 6 6 11 8 15 8
10 8 24 5 14 9 5 13 14 17 0 1 2 0 4 4 5 8 13 12 9 13
18 11 15 10 10 12 11 11 12 9 2 5 7 2 3 8 8 9 9 12 12 11
9 12 9 9 4 5 7 6 9 7 5 5 4 11 10 8 11 13 15 16 3 18
14 10 14 9 3 6 5 5 4 5 7 17 9 7 9 11 11 10 7 10 11 8
16 7 7 11 9 3 1 6 9 9 11 6 7 9 10 10 10 10 10 11 10 8
9 16 11 9 12 6 5 12 18 6 5 8 10 13 11 11 11 10 8 9 10 10
9 7 12 17 14 14 16 11 5 6 9 12 12 10 10 11 11 11 11 9 10 8
8 7 20 15 18 14 6 5 7 9 9 10 10 9 11 11 10 10 9 9 9 9
Height
3098 3098 3100 3102 3104 3107 3110 3113 3114 3114 3114 3115 3113 3112 3112 3111 3113 3113 3115 3116 3115 3113
3095 3097 3099 3100 3101 3101 3104 3105 3106 3107 3105 3105 3098 3101 3103 3104 3106 3107 3108 3108 3107 3106
3090 3091 3092 3093 3094 3094 3095 3097 3099 3098 3098 3096 3088 3094 3097 3100 3101 3101 3100 3099 3098 3097
3081 3082 3082 3084 3085 3087 3087 3088 3089 3088 3087 3087 3083 3086 3089 3091 3093 3094 3092 3091 3090 3088
3070 3072 3074 3074 3072 3075 3075 3073 3073 3072 3068 3077 3079 3080 3082 3084 3085 3086 3085 3082 3082 3080
3063 3065 3066 3068 3067 3066 3065 3067 3067 3071 3066 3068 3073 3076 3076 3077 3077 3078 3076 3074 3072 3070
3057 3059 3060 3061 3061 3062 3061 3063 3065 3066 3067 3067 3069 3070 3069 3068 3068 3067 3066 3064 3061 3060
3051 3051 3052 3053 3055 3054 3055 3057 3060 3061 3061 3061 3061 3060 3060 3059 3059 3058 3056 3054 3052 3049
3044 3044 3045 3047 3048 3050 3051 3052 3051 3052 3051 3051 3052 3052 3051 3051 3050 3048 3047 3044 3042 3038
3037 3039 3039 3041 3041 3043 3043 3044 3044 3045 3046 3045 3044 3044 3043 3041 3040 3038 3036 3033 3030 3028
3030 3031 3032 3033 3034 3035 3036 3036 3036 3037 3036 3036 3035 3034 3032 3031 3029 3027 3025 3022 3019 3018
3024 3024 3025 3025 3026 3027 3027 3028 3029 3028 3027 3026 3025 3024 3022 3021 3019 3016 3014 3012 3011 3009
3017 3017 3017 3018 3018 3018 3019 3018 3018 3018 3017 3016 3015 3014 3013 3011 3009 3007 3006 3004 3002 3000
3006 3007 3008 3008 3008 3009 3010 3009 3009 3009 3008 3007 3005 3003 3002 3000 2998 2997 2995 2993 2991 2988